Location: Coors Field
(39.7564°N, 104.9943°W)
Time: 08:15:48
(UTC-06:00)

ISS - Visible Passes

Search period start: 05 May 2015 00:00
Search period end: 15 May 2015 00:00
Orbit: 395 x 401 km, 51.6° (Epoch: 04 May)

Date Brightness Start Highest point End Pass type
(mag) Time Alt. Az. Time Alt. Az. Time Alt. Az.
11 May -0.7 04:55:05 10° SSE 04:56:36 13° SE 04:58:13 10° E visible
13 May -1.9 04:41:25 13° SSW 04:43:46 29° SE 04:46:38 10° ENE visible
14 May -1.0 03:49:08 14° SE 03:49:27 14° SE 03:51:17 10° E visible
